User: anonymous   Login
Location: Oshawa
(43.9000°N, 78.8670°W)
Time: 14:37:43
(UTC-05:00)
Language:

Cosmos 1805 Rocket - Orbit

View from above orbital plane
View from above orbital plane
View from above satellite
View from above satellite

Ground track
Ground track

The orbit data is extracted from the following two-line orbital elements,

1 17192U 86097B   15031.91221727  .00000523  00000-0  61016-4 0  6727
2 17192 082.5094 350.3451 0018577 081.9432 330.8589 14.83171033520112
Epoch (UTC): 31 January 2015 21:53:35
Eccentricity: 0.0018577
inclination: 82.5094°
perigee height: 606 km
apogee height: 632 km
right ascension of ascending node: 350.3451°
argument of perigee: 81.9432°
revolutions per day: 14.83171033
mean anomaly at epoch: 330.8589°
orbit number at epoch: 52011

The dashed part of the orbit path shows where the satellite is in the earth's shadow,  

DLR